SPACEBEE-55 (47459 NORAD) Tracking and Keplerian Element Data

This shows tracking and keplerian element data for the satellite.

Feedback or suggestion? Click here.




ElementValue
Catalog47459
NameSPACEBEE-55
Epoch Orbit1168
Epoch Day99.88034829
Epoch Year2021
RAAN162.2615
Inclination97.4923
Eccentricity0.0012026
Argument of Perigee352.783
Mean Anonmoly7.3226
Mean Motion15.12759156
Decay Rate1.141E-05
L11 47459U 21006AY 21099.88034829 .00001141 00000-0 68705-4 0 9998
L22 47459 97.4923 162.2615 0012026 352.7830 7.3226 15.12759156 11685

Live tracking and technical data element details for SPACEBEE-55 (NORAD 47459). SPACEBEE-55 can be tracked NOW for your location showing map with azimuth and elevation plus other details from your city location.

Track the satellite on the map from your city or location and see movement details for azimuth, elevation, latitude, longitude, range, height, and movement on the map or in text.







IsCatalogInMostPopularTable: catalog: 47459, numindb: 14
Update: records affected: 1



GetName: 47459 SPACEBEE-55

Hit Count: updated at: Sat, 10 Apr 2021 19:47:24 GMT